Content
SEND FEEDBACK

Daily
Averages
Monthly
Summary
United States of America

MOUNT LEMMON, ARIZONA


Home > North America > United States > Arizona
Elevation: 7960 feet     Latitude: 32 25N     Longitude: 110 43W

WEATHER
 
SELECT A DAY
Number of Records: 177,893;   Date Range: 1/3/95 - 8/12/14
 
SHARE

PRINT THIS DATA

[ ← Previous Day ]
WEATHER ALMANAC - JANUARY 23, 2013
[ Next Day → ]
[ °C ]   °F
Weather ElementAverageHighLow
Temperature64.1 °F79.2 °F (3:58 pm)48.7 °F (3:58 am)
Dewpoint28.2 °F31.5 °F (5:58 pm)23.7 °F (6:58 am)
Humidity27.3 %43 % (2:58 am)16 % (11:58 am)
Barometer30.10 in30.17 in (9:58 am)30.03 in (4:58 pm)
Wind Speed7.9 mph13.8 mph (9:58 am)
Weather ElementAverage
Visibility10 mi
Wind DirectionESE (123.9 °)

Weather ElementTotal
Precipitation---
Heating Degree Days1.1 (Base 65)
Growing Degree Days14 (Base 50)
Averaged from 23 records on January 23, 2013
WEATHER CONDITIONS BREAKOUT
WIND DIRECTION BREAKOUT
WEATHER BY HOUR - JANUARY 23, 2013
[ °C ]   °F
Local TimeTemperatureDewpointHumidityBarometerVisibilityWind DirectionWind SpeedGust SpeedPrecipitationEventsConditions
1:58 AM50.9 °F27.0 °F40 %30.11 in10.0 miSE (130°)10.4 mphClear
2:58 AM48.9 °F27.3 °F43 %30.11 in10.0 miESE (110°)5.8 mphClear
3:58 AM48.7 °F26.1 °F41 %30.11 in10.0 miSE (130°)10.4 mphClear
4:58 AM53.4 °F25.2 °F33 %30.10 in10.0 miSE (130°)10.4 mphClear
5:58 AM55.6 °F24.1 °F30 %30.11 in10.0 miESE (120°)11.5 mphClear
6:58 AM55.2 °F23.7 °F30 %30.12 in10.0 miSE (140°)11.5 mphClear
7:58 AM54.7 °F24.6 °F31 %30.14 in10.0 miSSE (160°)10.4 mphClear
8:58 AM57.0 °F28.0 °F33 %30.16 in10.0 miESE (110°)10.4 mphClear
9:58 AM65.3 °F25.9 °F23 %30.17 in10.0 miSE (130°)13.8 mphClear
10:58 AM70.3 °F26.6 °F20 %30.16 in10.0 miESE (120°)10.4 mphClear
11:58 AM74.8 °F26.1 °F16 %30.12 in10.0 miESE (120°)12.7 mphPartly Cloudy
12:58 PM78.4 °F29.1 °F16 %30.08 in10.0 miVariable3.5 mphClear
1:58 PM78.6 °F29.3 °F16 %30.06 in10.0 miNorth (10°)2.3 mphClear
2:58 PM78.8 °F29.5 °F16 %30.05 in10.0 miSW (220°)4.6 mphClear
3:58 PM79.2 °F31.3 °F17 %30.04 in10.0 miSSW (200°)4.6 mphClear
4:58 PM78.8 °F30.9 °F17 %30.03 in10.0 miSSE (150°)5.8 mphClear
5:58 PM75.2 °F31.5 °F20 %30.04 in10.0 miCalmClear
6:58 PM66.4 °F31.3 °F27 %30.06 in10.0 miEast (80°)6.9 mphClear
7:58 PM64.0 °F30.7 °F29 %30.07 in10.0 miSW (220°)5.8 mphClear
8:58 PM64.2 °F30.6 °F28 %30.08 in10.0 miSE (130°)5.8 mphClear
9:58 PM61.9 °F28.8 °F29 %30.09 in10.0 miSSE (160°)6.9 mphScattered Clouds
10:58 PM57.7 °F30.4 °F35 %30.11 in10.0 miSE (140°)9.2 mphOvercast
11:58 PM56.7 °F30.2 °F37 %30.11 in10.0 miSE (140°)8.1 mphClear
Hourly data recorded from KDMA, located miles away from Mount Lemmon, Arizona







STORIES FROM OUR PARTNERS